Fairbanks Eiels, AK

12:54 AM AKDT on August 18, 2017 (GMT -0800)
Eielson Air Force Base

Weather History for PAEI - December, 2011

Change the Weather History Date:

Tuesday, December 20, 2011

  Actual Average Record
Temperature  
Mean Temperature 19 °F -  
Max Temperature 33 °F 4 °F 35 °F (2000)
Min Temperature 7 °F -8 °F -45 °F (2012)
Degree Days  
Heating Degree Days 46    
Moisture  
Dew Point 13 °F    
Average Humidity 86    
Maximum Humidity 93    
Minimum Humidity 61    
Precipitation  
Precipitation 0.03 in - - ()
Sea Level Pressure  
Sea Level Pressure 29.66 in    
Wind  
Wind Speed 2 mph (SSE)    
Max Wind Speed 21 mph    
Max Gust Speed -    
Visibility 6 miles    
Events Snow    
Averages and records for this station are not official NWS values.
T = Trace of Precipitation, MM = Missing Value Source: NWS Daily Summary

Daily Weather History Graph

Daily Weather History Graph

Search for Another Location

Airport or City:

Trip Planner

Search our weather history database for the weather conditions in past years. The results will help you decide how hot, cold, wet, or windy it might be!

Date:

Astronomy

Dec. 20, 2011 Rise Set
Actual Time 10:51 AM AKST 2:40 PM AKST
Civil Twilight 9:27 AM AKST 4:04 PM AKST
Nautical Twilight 8:16 AM AKST 5:15 PM AKST
Astronomical Twilight 7:15 AM AKST 6:16 PM AKST
Moon 5:14 AM AKST (12/20) 12:25 PM AKST (12/20)
Length of Visible Light 6h 36m
Length of Day
3h 48m
Waning Crescent, 20% of the Moon is Illuminated
Dec 20
Waning Crescent
Dec 24
New
Dec 31
First Quarter
Jan 8
Full
Jan 16
Last Quarter

Hourly Weather History & Observations

Time (AKST) Temp. Windchill Dew Point Humidity Pressure Visibility Wind Dir Wind Speed Gust Speed Precip Events Conditions
12:55 AM 13.6 °F 7.7 °F 10.8 °F 88% 29.60 in 10.0 mi NW 3.5 mph - N/A   Mostly Cloudy
1:55 AM 12.6 °F - 9.3 °F 87% 29.61 in 10.0 mi Calm Calm - N/A   Overcast
2:55 AM 13.3 °F - 10.2 °F 88% 29.62 in 10.0 mi Calm Calm - N/A   Overcast
3:55 AM 14.2 °F - 11.3 °F 88% 29.64 in 10.0 mi Calm Calm - N/A   Overcast
4:55 AM 13.8 °F - 10.8 °F 88% 29.65 in 10.0 mi Calm Calm - 0.00 in   Overcast
4:56 AM 14.0 °F - 10.4 °F 86% 29.65 in 10.0 mi Calm Calm - N/A   Light Freezing Drizzle
5:25 AM 14.0 °F 6.5 °F 10.4 °F 86% 29.66 in 10.0 mi South 4.6 mph - N/A   Overcast
5:55 AM 14.5 °F - 11.7 °F 88% 29.67 in 10.0 mi Calm Calm - 0.00 in   Overcast
6:44 AM 15.8 °F - 14.0 °F 93% 29.70 in 5.0 mi Calm Calm - N/A Snow Light Snow
6:46 AM 15.8 °F - 14.0 °F 93% 29.70 in 4.0 mi Calm Calm - N/A Snow Light Snow
6:48 AM 15.8 °F - 14.0 °F 93% 29.70 in 4.0 mi Calm Calm - N/A Snow Light Snow
6:52 AM 15.8 °F - 14.0 °F 93% 29.70 in 4.0 mi Calm Calm - N/A Snow Light Snow
6:55 AM 16.3 °F - 13.6 °F 89% 29.70 in 3.0 mi Calm Calm - 0.00 in Snow Light Snow
6:59 AM 15.8 °F - 14.0 °F 93% 29.70 in 3.0 mi Calm Calm - N/A Snow Light Snow
7:01 AM 15.8 °F - 14.0 °F 93% 29.70 in 3.0 mi Calm Calm - N/A Snow Light Snow
7:12 AM 15.8 °F - 14.0 °F 93% 29.70 in 3.0 mi Calm Calm - N/A Snow Light Snow
7:15 AM 15.8 °F - 14.0 °F 93% 29.71 in 2.5 mi Calm Calm - N/A Snow Light Snow
7:18 AM 15.8 °F - 14.0 °F 93% 29.71 in 2.0 mi Calm Calm - N/A Snow Light Snow
7:19 AM 17.6 °F - 14.0 °F 86% 29.71 in 2.0 mi Calm Calm - N/A Snow Light Snow
7:22 AM 17.6 °F - 14.0 °F 86% 29.71 in 1.8 mi Calm Calm - N/A Snow Light Snow
7:23 AM 17.6 °F - 14.0 °F 86% 29.71 in 1.8 mi Calm Calm - N/A Snow Light Snow
7:32 AM 17.6 °F - 14.0 °F 86% 29.71 in 1.5 mi Calm Calm - N/A Snow Light Snow
7:42 AM 17.6 °F - 14.0 °F 86% 29.71 in 2.0 mi Calm Calm - N/A Snow Light Snow
7:55 AM 16.7 °F - 14.0 °F 89% 29.72 in 2.0 mi Calm Calm - 0.02 in Snow Light Snow
8:05 AM 15.8 °F 10.2 °F 14.0 °F 93% 29.73 in 1.8 mi SSW 3.5 mph - N/A Snow Light Snow
8:16 AM 15.8 °F 7.2 °F 14.0 °F 93% 29.73 in 1.5 mi SSW 5.8 mph - N/A Snow Light Snow
8:22 AM 17.6 °F 12.3 °F 14.0 °F 86% 29.74 in 2.0 mi SSW 3.5 mph - N/A Snow Light Snow
8:55 AM 17.1 °F 11.7 °F 14.4 °F 89% 29.75 in 2.0 mi SSW 3.5 mph - 0.01 in Snow Light Snow
8:59 AM 17.6 °F 10.7 °F 14.0 °F 86% 29.75 in 2.0 mi South 4.6 mph - N/A Snow Light Snow
9:42 AM 17.6 °F 10.7 °F 15.8 °F 93% 29.76 in 2.5 mi SSE 4.6 mph - N/A Snow Light Snow
9:55 AM 17.6 °F 10.7 °F 15.8 °F 93% 29.81 in 2.0 mi SSE 4.6 mph - N/A Snow Light Snow
10:11 AM 17.6 °F 9.3 °F 15.8 °F 93% 29.76 in 4.0 mi SSE 5.8 mph - N/A Snow Light Snow
10:55 AM 17.6 °F 10.7 °F 15.1 °F 90% 29.76 in 7.0 mi South 4.6 mph - 0.00 in Snow Light Snow
11:55 AM 16.9 °F 11.5 °F 14.2 °F 89% 29.75 in 10.0 mi South 3.5 mph - 0.00 in   Scattered Clouds
12:55 PM 12.7 °F - 9.5 °F 87% 29.75 in 10.0 mi Calm Calm - N/A   Scattered Clouds
1:55 PM 9.5 °F -1.5 °F 5.7 °F 85% 29.72 in 10.0 mi NNE 6.9 mph - N/A   Scattered Clouds
2:55 PM 9.0 °F - 5.2 °F 85% 29.68 in 10.0 mi Calm Calm - N/A   Clear
3:55 PM 7.7 °F -0.9 °F 4.1 °F 85% 29.65 in 10.0 mi North 4.6 mph - N/A   Mostly Cloudy
4:55 PM 11.1 °F - 8.2 °F 88% 29.59 in 10.0 mi Calm Calm - 0.00 in   Clear
5:55 PM 12.9 °F 5.2 °F 9.7 °F 87% 29.53 in 10.0 mi North 4.6 mph - N/A   Overcast
6:55 PM 25.2 °F 16.5 °F 23.2 °F 92% 29.49 in 10.0 mi ESE 8.1 mph - 0.00 in   Mostly Cloudy
7:55 PM 28.6 °F 16.0 °F 18.9 °F 67% 29.45 in 10.0 mi SE 18.4 mph - 0.00 in   Partly Cloudy
8:55 PM 29.8 °F 17.0 °F 19.8 °F 66% 29.41 in 10.0 mi SE 20.7 mph - 0.00 in   Overcast
9:55 PM 31.1 °F 20.9 °F 19.6 °F 62% 29.37 in 10.0 mi ESE 13.8 mph - 0.00 in   Scattered Clouds
10:55 PM 31.8 °F 21.4 °F 20.3 °F 62% 29.34 in 10.0 mi SE 15.0 mph - N/A   Mostly Cloudy
11:55 PM 33.3 °F 23.7 °F 21.0 °F 61% 29.32 in 10.0 mi SE 13.8 mph - N/A   Mostly Cloudy